Regional Weather Roundup
Issued by NWS

Home | Current Version | Previous Version | Graphics & Text | Print | Product List | Glossary Off
Versions: 1 2 3 4 5 6 7 8 9 10 11 12 13 14 15 16 17 18 19 20 21 22 23 24 25 26 27 28 29 30 31 32 33 34 35 36 37 38 39 40 41 42 43 44 45 46 47 48 49 50

000
ASUS43 KBIS 200320
RWRND

NORTH DAKOTA REGIONAL WEATHER ROUNDUP
NATIONAL WEATHER SERVICE BISMARCK ND
1000 PM CDT SAT APR 19 2014

NOTE: "FAIR" INDICATES FEW OR NO CLOUDS BELOW 12,000 FEET WITH NO
SIGNIFICANT WEATHER AND/OR OBSTRUCTIONS TO VISIBILITY.


NDZ001>003-009>011-017-200400-
NORTHWEST NORTH DAKOTA

CITY           SKY/WX    TMP DP  RH WIND       PRES   REMARKS
WILLISTON      CLEAR     38  31  76 CALM      29.91R
MINOT          CLEAR     41  33  73 SE5       29.95R
MINOT AFB      CLEAR     37  33  85 CALM      29.95R
$$

NDZ018>021-031>035-040>046-200400-
SOUTHWEST NORTH DAKOTA

CITY           SKY/WX    TMP DP  RH WIND       PRES   REMARKS
BISMARCK       CLEAR     46  32  58 NE8       29.98R
DICKINSON      CLEAR     41  26  55 S7        29.94R
GARRISON         N/A     45  33  63 CALM      29.95R
HETTINGER ARPT CLEAR     39  23  52 CALM      29.98R
$$

NDZ004>008-012>016-024-026-027-054-200400-
NORTHEAST NORTH DAKOTA

CITY           SKY/WX    TMP DP  RH WIND       PRES   REMARKS
GRAND FORKS    CLEAR     42  35  76 W6        29.99R
GRND FRKS AFB  CLEAR     42  34  74 NW5       29.99R
DEVILS LAKE    CLEAR     37  28  70 W3        30.00R
$$

NDZ022-023-025-028>030-036>039-047>053-200400-
SOUTHEAST NORTH DAKOTA

CITY           SKY/WX    TMP DP  RH WIND       PRES   REMARKS
FARGO          CLEAR     51  38  60 N13       29.99R
JAMESTOWN      CLEAR     43  36  76 N3        29.99R
$$




USA.gov is the U.S. government's official web portal to all federal, state and local government web resources and services.